COSMOS 1524

Satellite information

Favourite Embed

Satellite Type and Status

PAYLOADIN ORBIT

Key statistics

Satellite COSMOS 1524 at a glance.

Uptime

15160

Days in orbit

Revolutions

≈ 12.6

Per day

Orbit

LEO

Low Earth Orbit

Inclination

74.0

Latest

Satellite identification and parameters

Extended collection of information and parameters for COSMOS 1524.

Object identification

Identified? True

Debris? False

Object name: COSMOS 1524

International designator: 1984-001C

Object number (NORAD): 14613

Object ID (CCSDS): 14613

Country: COMMONWEALTH OF INDEPENDENT STATES (CIS)

Current information (Y/N): Y

RCS size: MEDIUM

Orbital parameters

Period: 114.582 minutes

Inclination: 74.007 deg

SMA: 7814.565 km

Apoapsis: 1460.893 km

Periapsis: 1411.967 km

RAAN: 153.7036 deg

Eccentricy: 0.0031304

Argument of periapsis: 108.6656 deg

Mean anomaly: 306.8756 deg

Mean motion: 12.56740312 rev/day

Mean motion (dot): -0.00000018 rev/day2

B* drag term: -0.000010917 1/REarth

Two-line elements (TLE)

Creation date: July 8, 2025, 2:27 a.m.

Reference frame: TEME

Reference center: EARTH

Epoch: July 7, 2025, 10:20 p.m. UTC

TLE line 0: 0 COSMOS 1524

TLE line 1: 1 14613U 84001C 25188.93080209 -.00000018 00000-0 -10917-4 0 9996

TLE line 2: 2 14613 74.0070 153.7036 0031304 108.6656 306.8756 12.56740312904057

Live tracking on map

Real-time ground track for satellite COSMOS 1524.

In-orbit conjunctions

There are no conjunctions computed for COSMOS 1524, at the moment. Check back to stay up to date, as we update our databases every day.

Go to all conjunctions

Associated space launch

Military communications satellites

COSMOS 1524 was lifted into orbit during the mission ‘Kosmos-3M | Strela-1M 273-280’, on board a Kosmos-3M space rocket.

The launch took place on Jan. 5, 1984, 8:09 p.m. from 132/2.

For more information about the launch, click the button.

Launch to space Kosmos-3M | Strela-1M 273-280
Kosmos-3M | Strela-1M 273-280

Agency: N/A

Status: Launch Successful

Launch date: Jan. 5, 1984, 8:09 p.m. UTC

Rocket: Kosmos-3M

Launch pad: 132/2

Location: Plesetsk Cosmodrome, Russian Federation

...

Latest news about this satellite

There are no fresh news available about this satellite. Check back as we update our databases every day.


Newsletter sign-up

Weekly statistics, charts and insights to help you stay on top of the space industry.